Weather in Vohtoga

Russia / Vologda Oblast     58°45′58″N   41°04′20″E
temp.,
°C
wind,
m/s
gust,
m/s
humid.,
%
clouds,
%
prec.,
mm/h
press.,
hPa
HPBL,
m
24 september, fri
fri2400:00+9se41094100 0.1 1011660
03:00+9ese41098100 1.8 1009540
06:00+8se4997100 2.9 1007618
09:00+8se4997100 3.7 1007711
12:00+9sse4894100 0.5 1008671
15:00+10sse3885100 1.1 1007822
18:00+9sse3889100 0.8 1008402
21:00+7se389127 0.9 1009244
25 september, sat
sat2500:00+5se26979 0.0 1009124
03:00+4se269898 0.0 1009130
06:00+4se279767 0.0 1009139
09:00+7se3992100 0.0 1009347
12:00+10sse36815 0.1 1009476
15:00+12sse4761100 0.1 10081117
18:00+9sse31075100 0.0 1008562
21:00+8sse31083100 0.1 1008419
26 september, sun
sun2600:00+8se3991100 0.1 1007325
03:00+8se3893100 0.3 1007293
06:00+8se3893100 0.2 1007309
09:00+8ese2896100 0.6 1008434
12:00+8ese3896100 0.9 1010428
15:00+10e2484100 1.1 1011334
18:00+9ne388978 0.4 1014317
21:00+5nne28975 0.4 1016185
27 september, mon
mon2700:00+5n3896100 0.0 1017230
03:00+7n31096100 0.0 1019504
06:00+7n4996100 0.0 1020616
09:00+7nne4996100 0.2 1021637
12:00+8nne3893100 0.3 1023615
15:00+8nne3892100 0.5 1025632
18:00+7ne3793100 0.1 1027690
21:00+6ne3795100 0.2 1028596
28 september, tue
tue2800:00+6ne3695100 0.1 1030534
03:00+4nne259898 0.1 1031142
06:00+5nne2597100 0.0 1032261
09:00+6ene2489100 0.0 1033401
12:00+9ne227083 0.0 1033924
15:00+9n3367100 0.0 10331106
18:00+8nne3570100 0.0 1034332
21:00+7ne1176100 0.0 103417